Regional Weather Roundup
Issued by NWS Little Rock, AR

Home | Current Version | Previous Version | Graphics & Text | Print | Product List | Glossary On
Versions: 1 2 3 4 5 6 7 8 9 10 11 12 13 14 15 16 17 18 19 20 21 22 23 24 25 26 27 28 29 30 31 32 33 34 35 36 37 38 39 40 41 42 43 44 45 46 47 48 49 50
000
ASUS44 KLZK 010005
RWRLZK

WEATHER ROUNDUP FOR ARKANSAS
NATIONAL WEATHER SERVICE LITTLE ROCK AR
700 PM CDT TUE JUN 30 2015

NOTE: "FAIR" INDICATES FEW OR NO CLOUDS BELOW 12,000 FEET WITH NO
SIGNIFICANT WEATHER AND/OR OBSTRUCTIONS TO VISIBILITY.

ARZ001-003-010-029-010100-
NORTHWEST ARKANSAS

CITY           SKY/WX    TMP DP  RH WIND       PRES   REMARKS
FAYETTEVILLE   SUNNY     85  71  63 SW5       29.94F HX  90
6HR MIN TEMP:  84; 6HR MAX TEMP:  87;

FORT SMITH     MOSUNNY   92  67  43 SW9       29.89S HX  95
6HR MIN TEMP:  89; 6HR MAX TEMP:  95;

HARRISON       MOSUNNY   84  73  69 CALM      29.95S HX  90
6HR MIN TEMP:  83; 6HR MAX TEMP:  85;

BENTONVILLE    SUNNY     88  68  51 NW3       29.95S HX  91
6HR MIN TEMP:  84; 6HR MAX TEMP:  90;

ROGERS         MOSUNNY   86  71  60 NW3       29.95S HX  91
6HR MIN TEMP:  84; 6HR MAX TEMP:  88;

SILOAM SPGS    SUNNY     88  66  48 SW8       29.94S HX  90
6HR MIN TEMP:  88; 6HR MAX TEMP:  90;

HIGHFILL       SUNNY     88  71  57 SW5       29.93F HX  94
6HR MIN TEMP:  85; 6HR MAX TEMP:  89;

SPRINGDALE     SUNNY     88  68  51 W7        29.96S HX  91
$$

ARZ004-005-016-010100-
NORTH CENTRAL ARKANSAS

CITY           SKY/WX    TMP DP  RH WIND       PRES   REMARKS
BATESVILLE     SUNNY     84  72  65 SW5       29.91S HX  89
6HR MIN TEMP:  84; 6HR MAX TEMP:  90;

FLIPPIN          N/A     86  68  54 CALM      29.91S HX  89
6HR MIN TEMP:  86; 6HR MAX TEMP:  90;

MTN HOME       MOSUNNY   83  71  67 CALM      29.92F HX  87
6HR MIN TEMP:  82; 6HR MAX TEMP:  86;

$$

ARZ040-041-010100-
WEST CENTRAL ARKANSAS

CITY           SKY/WX    TMP DP  RH WIND       PRES   REMARKS
MENA           MOSUNNY   91  72  52 CALM      29.96S HX  98
MOUNT IDA      SUNNY     88  73  61 CALM      29.92S HX  95
6HR MIN TEMP:  88; 6HR MAX TEMP:  92;

$$

ARZ009-017-025-026-028-010100-
NORTHEAST ARKANSAS

CITY           SKY/WX    TMP DP  RH WIND       PRES   REMARKS
JONESBORO      SUNNY     86  65  49 W7        29.89S HX  88
6HR MIN TEMP:  86; 6HR MAX TEMP:  91;

NEWPORT        SUNNY     89  67  48 SW7       29.91S HX  92
6HR MIN TEMP:  89; 6HR MAX TEMP:  92;

WALNUT RIDGE   MOSUNNY   86  66  51 W8        29.89S HX  88
6HR MIN TEMP:  86; 6HR MAX TEMP:  90;

BLYTHEVILLE    SUNNY     86  68  54 W5        29.89S HX  89
6HR MIN TEMP:  86; 6HR MAX TEMP:  89;

$$

ARZ022-023-033-042-044-010100-
CENTRAL ARKANSAS

CITY           SKY/WX    TMP DP  RH WIND       PRES   REMARKS
LITTLE ROCK    MOSUNNY   88  68  51 S6        29.92R HX  91
6HR MIN TEMP:  88; 6HR MAX TEMP:  92;

N LITTLE ROCK  MOSUNNY   86  72  63 CALM      29.92R HX  92
6HR MIN TEMP:  85; 6HR MAX TEMP:  88;

JACKSONVILLE   SUNNY     88  71  58 E2        29.92R HX  94
6HR MIN TEMP:  87; 6HR MAX TEMP:  89;

SEARCY         SUNNY     84  73  69 SW3       29.93R HX  90
6HR MIN TEMP:  84; 6HR MAX TEMP:  89;

HOT SPRINGS    SUNNY     90  69  50 SW8       29.93R HX  94
6HR MIN TEMP:  89; 6HR MAX TEMP:  93;

RUSSELLVILLE   SUNNY     89  72  56 SW3       29.90S HX  96
6HR MIN TEMP:  85; 6HR MAX TEMP:  91;

CLINTON        FAIR      86  75  70 CALM      29.93R HX  95
$$

ARZ036-010100-
EAST ARKANSAS

CITY           SKY/WX    TMP DP  RH WIND       PRES   REMARKS
WEST MEMPHIS   SUNNY     83  70  64 SW5       29.91R HX  87
6HR MIN TEMP:  83; 6HR MAX TEMP:  87;

$$

ARZ050-053-066-070-073-010100-
SOUTHWEST ARKANSAS

CITY           SKY/WX    TMP DP  RH WIND       PRES   REMARKS
ARKADELPHIA    FAIR      91  72  53 SW9       29.93R HX  98
6HR MIN TEMP:  91; 6HR MAX TEMP:  95;

CAMDEN         SUNNY     90  68  48 NE3       29.93S HX  93
TEXARKANA      SUNNY     90  71  53 W6        29.94S HX  96
6HR MIN TEMP:  90; 6HR MAX TEMP:  93;

EL DORADO      PTSUNNY   88  74  63 S14G22    29.95R HX  96
6HR MIN TEMP:  88; 6HR MAX TEMP:  93;

DE QUEEN       SUNNY     88  73  61 SW5       29.91F HX  95
6HR MIN TEMP:  88; 6HR MAX TEMP:  91;

$$

ARZ056-057-069-010100-
SOUTHEAST ARKANSAS

CITY           SKY/WX    TMP DP  RH WIND       PRES   REMARKS
PINE BLUFF     SUNNY     88  70  55 SW5       29.92S HX  93
6HR MIN TEMP:  87; 6HR MAX TEMP:  91; 6HR PCP: TRACE;

STUTTGART      SUNNY     88  66  48 MISG      29.94R HX  90
6HR MIN TEMP:  88; 6HR MAX TEMP:  90;

MONTICELLO     SUNNY     89  75  63 SW3       29.93S HX  99
6HR MIN TEMP:  87; 6HR MAX TEMP:  91;


$$




USA.gov is the U.S. government's official web portal to all federal, state and local government web resources and services.